Location: Unnamed
(48.2382°N, 16.3826°E)
Time: 11:28:33
(UTC+02:00)

Falcon 9 debris - Pass Details

Date: 14 August 2020
Orbit: 426 x 434 km, 53.0° (Epoch: 23 September)

Event Time Altitude Azimuth Distance (km) Brightness Sun altitude
Rises 20:48:48 0° 254° (WSW) 2,401 ? -6.7°
Reaches altitude 10° 20:50:55 10° 258° (WSW) 1,537 ? -7.0°
Maximum altitude 20:54:20 60° 339° (NNW) 504 ? -7.5°
Drops below altitude 10° 20:57:47 10° 61° (ENE) 1,545 ? -8.0°
Sets 20:59:55 0° 65° (ENE) 2,416 ? -8.3°
